Temp
-5 -5 -6 -5 -5 -5 -5 -6 -6 -6 -6 -6 -6 -6 -6 -6 -6 -6 -6 -6 -6 -6 -6 -6 -6 -5 -5 -5 -5 -5 -6 -6 -6 -6 -6 -6 -6 -6 -6 -7 -7 -6 -6 -6 -6 -6 -6 -6 -6 -6 -6 -6 -6 -6 -6 -6 -6 -7 -7 -7 -7 -7 -7
-5 -5 -6 -6 -5 -5 -5 -5 -6 -6 -6 -6 -6 -6 -6 -6 -6 -6 -6 -6 -6 -6 -6 -6 -6 -6 -5 -5 -6 -6 -6 -6 -6 -6 -6 -6 -6 -6 -6 -6 -6 -6 -6 -6 -6 -6 -6 -6 -6 -6 -6 -6 -6 -6 -6 -6 -6 -6 -6 -7 -7 -7 -7
-6 -6 -6 -6 -6 -6 -5 -5 -6 -6 -6 -6 -6 -6 -6 -6 -6 -6 -5 -5 -6 -6 -6 -6 -6 -6 -5 -5 -6 -6 -6 -6 -6 -6 -6 -6 -6 -6 -6 -6 -6 -6 -6 -6 -6 -6 -6 -6 -6 -6 -6 -6 -6 -6 -6 -6 -6 -6 -6 -6 -6 -7 -7
-6 -6 -6 -6 -6 -6 -6 -6 -6 -6 -6 -6 -6 -6 -6 -6 -6 -5 -5 -5 -5 -6 -6 -6 -6 -6 -6 -5 -6 -6 -6 -6 -6 -6 -6 -6 -6 -6 -6 -6 -6 -6 -6 -6 -6 -6 -6 -6 -6 -6 -6 -6 -6 -6 -6 -6 -6 -6 -6 -6 -6 -6 -6
-6 -6 -6 -6 -6 -6 -6 -6 -6 -5 -6 -6 -6 -6 -6 -6 -6 -6 -5 -5 -5 -5 -5 -6 -6 -6 -6 -6 -6 -6 -6 -6 -6 -6 -6 -6 -6 -6 -6 -6 -6 -6 -6 -6 -6 -6 -6 -6 -6 -6 -6 -6 -6 -6 -6 -6 -6 -6 -6 -6 -6 -6 -6
-6 -6 -6 -6 -6 -6 -6 -6 -6 -6 -6 -6 -6 -6 -6 -6 -6 -6 -6 -6 -5 -5 -6 -6 -6 -6 -6 -6 -6 -6 -6 -6 -6 -6 -6 -6 -6 -6 -6 -6 -6 -6 -6 -6 -6 -6 -6 -6 -6 -6 -6 -6 -6 -6 -6 -6 -6 -6 -6 -6 -6 -6 -6
-7 -6 -6 -6 -6 -6 -6 -5 -5 -6 -6 -6 -6 -6 -6 -6 -6 -6 -6 -6 -6 -6 -6 -6 -6 -6 -6 -6 -6 -6 -6 -6 -6 -6 -6 -6 -6 -6 -6 -6 -6 -6 -6 -6 -6 -6 -6 -6 -6 -6 -6 -6 -6 -6 -6 -6 -6 -6 -7 -7 -7 -6 -6
-7 -6 -6 -6 -6 -6 -6 -5 -5 -6 -6 -6 -6 -6 -6 -6 -6 -6 -6 -6 -6 -6 -6 -6 -6 -6 -6 -6 -6 -6 -6 -6 -6 -6 -6 -6 -6 -6 -6 -6 -6 -6 -6 -6 -6 -6 -6 -6 -6 -6 -6 -6 -6 -6 -6 -6 -6 -6 -6 -6 -7 -7 -7
-7 -7 -6 -6 -6 -6 -6 -6 -6 -6 -6 -6 -6 -6 -6 -6 -6 -6 -6 -6 -6 -6 -6 -6 -6 -6 -5 -5 -5 -5 -5 -5 -5 -6 -6 -6 -6 -6 -6 -6 -6 -6 -6 -6 -6 -6 -6 -6 -6 -6 -6 -6 -6 -6 -6 -6 -6 -6 -6 -6 -6 -6 -7
-7 -7 -7 -7 -6 -6 -6 -6 -6 -6 -6 -6 -6 -6 -6 -7 -7 -6 -6 -7 -7 -7 -7 -6 -6 -6 -6 -5 -5 -5 -5 -5 -5 -5 -6 -6 -6 -6 -6 -6 -6 -6 -6 -7 -6 -6 -6 -6 -6 -6 -6 -6 -6 -6 -6 -6 -6 -6 -6 -6 -6 -6 -6
-7 -7 -7 -7 -7 -7 -7 -7 -6 -6 -6 -6 -6 -6 -6 -6 -6 -6 -6 -6 -7 -7 -7 -6 -6 -6 -6 -6 -6 -6 -6 -6 -6 -5 -5 -6 -6 -6 -6 -6 -6 -6 -7 -7 -7 -6 -6 -6 -6 -6 -6 -6 -6 -6 -6 -6 -6 -6 -6 -6 -6 -6 -6
-7 -7 -7 -7 -7 -7 -7 -7 -6 -6 -7 -7 -6 -6 -6 -6 -6 -6 -6 -6 -6 -6 -6 -6 -6 -6 -6 -6 -6 -6 -6 -6 -6 -6 -6 -6 -6 -6 -6 -6 -6 -6 -6 -6 -7 -7 -6 -6 -6 -6 -6 -6 -6 -6 -6 -6 -6 -6 -6 -6 -6 -6 -6
-8 -8 -8 -8 -7 -7 -7 -7 -6 -7 -7 -7 -7 -7 -7 -6 -6 -6 -6 -6 -6 -6 -6 -6 -6 -6 -6 -6 -6 -6 -7 -7 -7 -7 -6 -6 -6 -6 -6 -6 -6 -6 -6 -6 -6 -6 -6 -6 -6 -6 -6 -6 -6 -6 -6 -6 -6 -6 -6 -6 -6 -6 -6
-8 -8 -8 -8 -8 -7 -7 -7 -7 -7 -7 -7 -7 -7 -7 -6 -6 -6 -6 -6 -6 -6 -6 -6 -6 -6 -6 -6 -6 -6 -7 -7 -7 -7 -7 -7 -6 -6 -6 -6 -6 -6 -6 -6 -6 -6 -6 -6 -6 -6 -6 -6 -6 -6 -6 -6 -6 -6 -6 -6 -6 -6 -6
-8 -8 -8 -8 -8 -7 -7 -7 -7 -7 -7 -7 -7 -7 -7 -6 -6 -6 -6 -6 -6 -6 -6 -6 -6 -6 -6 -6 -6 -6 -6 -6 -7 -7 -7 -7 -7 -7 -6 -6 -6 -6 -7 -7 -6 -6 -6 -6 -7 -7 -7 -6 -6 -6 -6 -6 -6 -6 -6 -6 -5 -5 -5
-8 -8 -8 -8 -8 -7 -7 -7 -7 -7 -7 -7 -7 -7 -7 -7 -6 -6 -6 -7 -7 -7 -7 -6 -6 -6 -7 -6 -6 -6 -6 -6 -6 -7 -7 -7 -7 -7 -7 -6 -6 -6 -7 -7 -7 -7 -6 -7 -7 -7 -7 -7 -6 -6 -6 -6 -6 -6 -6 -6 -6 -5 -5
-8 -8 -8 -8 -8 -8 -7 -7 -7 -7 -7 -7 -7 -7 -7 -7 -7 -7 -7 -7 -7 -7 -7 -7 -7 -7 -7 -7 -7 -7 -7 -6 -6 -6 -7 -7 -7 -7 -6 -6 -6 -6 -6 -7 -7 -7 -7 -7 -7 -7 -7 -7 -6 -6 -6 -7 -6 -6 -6 -6 -6 -6 -6
-9 -9 -8 -8 -8 -8 -8 -7 -7 -7 -7 -7 -7 -7 -7 -7 -7 -7 -7 -7 -7 -7 -7 -7 -7 -7 -7 -7 -7 -7 -7 -7 -7 -6 -6 -6 -7 -7 -7 -7 -7 -7 -7 -7 -7 -7 -7 -7 -7 -7 -7 -7 -7 -7 -7 -7 -7 -7 -7 -6 -6 -6 -6
-9 -9 -9 -9 -9 -8 -8 -8 -7 -7 -8 -8 -8 -8 -8 -8 -8 -8 -8 -8 -8 -7 -7 -7 -7 -7 -7 -7 -7 -7 -7 -7 -7 -7 -6 -6 -7 -7 -7 -7 -7 -7 -7 -7 -7 -7 -7 -7 -7 -7 -7 -7 -7 -7 -7 -7 -7 -7 -7 -7 -7 -6 -6
-9 -9 -9 -9 -9 -9 -8 -8 -8 -8 -8 -8 -8 -8 -8 -8 -8 -8 -8 -8 -8 -8 -8 -7 -7 -7 -7 -7 -7 -7 -7 -7 -7 -7 -7 -7 -6 -7 -7 -7 -7 -7 -7 -7 -7 -7 -7 -7 -7 -7 -7 -7 -7 -7 -7 -7 -7 -7 -7 -7 -7 -6 -6
-10 -10 -10 -9 -9 -9 -9 -8 -8 -8 -8 -8 -8 -8 -8 -8 -8 -8 -8 -8 -8 -8 -8 -7 -7 -7 -7 -7 -7 -7 -7 -7 -7 -7 -7 -7 -6 -6 -6 -7 -7 -7 -7 -7 -7 -7 -7 -7 -7 -7 -7 -7 -6 -6 -7 -7 -7 -7 -6 -6 -6 -6 -6
-11 -11 -10 -10 -9 -9 -9 -9 -9 -9 -9 -9 -9 -8 -8 -8 -8 -8 -8 -8 -8 -8 -8 -8 -8 -8 -8 -8 -8 -7 -7 -7 -7 -7 -7 -7 -6 -6 -6 -6 -7 -7 -7 -7 -7 -7 -7 -7 -7 -7 -7 -7 -7 -7 -7 -7 -7 -7 -6 -6 -6 -6 -6
-11 -11 -11 -10 -10 -9 -9 -9 -9 -9 -9 -9 -9 -9 -9 -9 -9 -8 -8 -8 -8 -8 -8 -8 -8 -8 -8 -8 -8 -8 -8 -7 -7 -7 -7 -7 -7 -7 -7 -6 -7 -7 -7 -7 -7 -7 -7 -7 -7 -7 -7 -7 -7 -7 -7 -7 -7 -6 -6 -6 -6 -6 -6
-11 -11 -11 -11 -10 -10 -10 -9 -9 -9 -9 -9 -9 -9 -9 -9 -9 -9 -8 -8 -8 -8 -8 -8 -8 -8 -8 -8 -8 -7 -8 -7 -7 -7 -7 -7 -7 -7 -7 -7 -7 -7 -7 -7 -7 -7 -7 -7 -7 -7 -7 -7 -7 -7 -7 -6 -6 -6 -7 -6 -6 -6 -6
-11 -11 -11 -11 -11 -10 -10 -10 -9 -9 -9 -9 -9 -9 -9 -9 -9 -9 -9 -9 -8 -8 -8 -8 -8 -8 -8 -8 -8 -8 -8 -8 -7 -7 -7 -7 -7 -7 -7 -7 -7 -7 -7 -7 -7 -7 -7 -7 -7 -7 -7 -7 -7 -7 -7 -6 -6 -6 -7 -6 -6 -6 -6
-12 -11 -11 -11 -11 -11 -10 -10 -10 -10 -9 -9 -9 -9 -9 -9 -9 -9 -9 -9 -9 -8 -8 -8 -8 -8 -8 -8 -8 -8 -8 -8 -8 -8 -8 -8 -8 -7 -7 -7 -7 -8 -8 -8 -7 -7 -7 -7 -7 -7 -7 -7 -7 -7 -7 -7 -7 -7 -7 -7 -6 -6 -6
-12 -12 -12 -11 -11 -11 -11 -10 -10 -10 -10 -9 -9 -9 -9 -9 -9 -9 -9 -9 -9 -9 -9 -9 -8 -8 -8 -8 -8 -8 -8 -8 -8 -8 -8 -8 -8 -8 -8 -8 -8 -8 -8 -8 -8 -8 -8 -8 -8 -8 -8 -7 -7 -7 -7 -7 -7 -7 -8 -7 -7 -7 -6
-12 -12 -12 -12 -11 -11 -11 -11 -11 -10 -10 -10 -10 -9 -9 -9 -9 -9 -9 -9 -9 -9 -9 -9 -9 -9 -9 -9 -9 -8 -8 -8 -8 -8 -8 -8 -8 -8 -8 -8 -9 -8 -8 -8 -8 -8 -8 -8 -8 -8 -8 -8 -8 -7 -7 -7 -7 -8 -8 -8 -8 -7 -7
-12 -12 -12 -12 -11 -11 -11 -11 -11 -11 -10 -10 -10 -10 -9 -9 -9 -10 -10 -10 -9 -9 -9 -9 -9 -9 -9 -9 -9 -9 -9 -9 -9 -9 -9 -9 -8 -8 -9 -9 -9 -8 -8 -8 -8 -8 -8 -8 -8 -8 -8 -8 -8 -8 -8 -8 -8 -8 -8 -8 -8 -8 -8
-12 -12 -12 -12 -11 -11 -11 -11 -11 -11 -11 -11 -10 -10 -10 -10 -10 -10 -10 -10 -10 -10 -9 -9 -9 -9 -9 -9 -9 -9 -9 -9 -9 -9 -9 -9 -9 -9 -9 -9 -9 -9 -9 -9 -9 -9 -8 -8 -8 -8 -8 -8 -8 -8 -8 -8 -8 -8 -8 -8 -8 -8 -8
-12 -12 -12 -12 -12 -12 -11 -11 -11 -11 -11 -11 -11 -10 -10 -10 -10 -10 -10 -10 -10 -10 -10 -9 -9 -9 -9 -9 -9 -9 -9 -9 -9 -10 -10 -10 -10 -9 -9 -9 -10 -10 -10 -9 -9 -9 -9 -8 -8 -8 -8 -8 -8 -8 -8 -8 -8 -8 -8 -8 -8 -8 -8
-13 -13 -12 -12 -12 -12 -12 -11 -11 -11 -11 -11 -11 -11 -11 -11 -11 -11 -11 -10 -10 -10 -10 -10 -10 -9 -9 -9 -9 -9 -10 -10 -10 -10 -10 -10 -10 -10 -10 -10 -10 -10 -10 -10 -9 -9 -9 -9 -9 -9 -8 -8 -8 -9 -9 -8 -8 -8 -8 -8 -8 -8 -8
-13 -13 -13 -13 -12 -12 -12 -11 -11 -11 -11 -12 -11 -11 -11 -11 -11 -11 -11 -11 -11 -11 -10 -10 -10 -10 -10 -10 -10 -10 -10 -10 -10 -10 -10 -10 -10 -10 -10 -10 -10 -10 -10 -10 -10 -10 -9 -9 -9 -9 -9 -9 -9 -9 -9 -9 -9 -8 -8 -8 -8 -8 -8
-13 -13 -13 -13 -13 -13 -12 -12 -11 -12 -12 -12 -12 -12 -12 -12 -12 -12 -11 -11 -11 -11 -11 -11 -11 -10 -10 -10 -10 -10 -10 -10 -10 -10 -10 -10 -10 -10 -10 -10 -10 -10 -10 -10 -10 -10 -10 -9 -9 -9 -9 -9 -9 -9 -9 -9 -9 -9 -9 -8 -8 -8 -8
-14 -14 -13 -13 -13 -13 -13 -12 -12 -12 -12 -12 -12 -12 -12 -12 -12 -12 -12 -12 -12 -11 -11 -11 -11 -11 -11 -11 -11 -10 -10 -10 -10 -10 -10 -10 -10 -10 -10 -10 -10 -10 -10 -10 -10 -10 -10 -9 -9 -9 -9 -9 -9 -9 -9 -9 -9 -9 -9 -9 -9 -9 -9
-14 -14 -14 -14 -13 -13 -13 -13 -12 -13 -13 -13 -13 -13 -12 -12 -12 -12 -12 -12 -12 -12 -12 -12 -11 -11 -11 -11 -11 -11 -11 -11 -11 -11 -10 -10 -10 -10 -10 -10 -10 -10 -10 -9 -9 -9 -9 -9 -9 -9 -9 -9 -9 -9 -9 -9 -9 -9 -9 -9 -9 -9 -9
-15 -15 -14 -14 -13 -13 -13 -13 -13 -13 -13 -13 -13 -13 -13 -13 -13 -13 -12 -12 -12 -12 -12 -12 -12 -12 -11 -11 -11 -11 -11 -11 -11 -11 -11 -11 -10 -10 -10 -10 -10 -10 -10 -10 -10 -10 -9 -9 -9 -9 -9 -9 -9 -9 -9 -9 -9 -9 -9 -9 -9 -9 -9
-15 -15 -15 -14 -14 -13 -13 -13 -13 -13 -13 -13 -13 -13 -13 -13 -13 -13 -13 -13 -13 -13 -13 -12 -12 -12 -12 -12 -12 -12 -12 -11 -11 -11 -11 -11 -11 -11 -10 -10 -10 -10 -10 -10 -10 -10 -10 -10 -10 -10 -9 -9 -9 -9 -9 -9 -9 -9 -9 -9 -9 -9 -9
Height
5907 5908 5910 5911 5912 5914 5916 5918 5919 5921 5922 5924 5925 5926 5927 5928 5930 5931 5933 5934 5935 5936 5938 5939 5940 5941 5942 5943 5944 5946 5947 5948 5949 5950 5952 5953 5953 5954 5955 5956 5956 5957 5958 5959 5959 5960 5961 5961 5961 5962 5962 5962 5963 5963 5964 5964 5964 5964 5964 5964 5964 5965 5965
5907 5907 5908 5910 5911 5912 5913 5915 5917 5919 5921 5922 5924 5925 5926 5927 5928 5930 5931 5932 5934 5935 5936 5938 5939 5940 5941 5942 5943 5944 5945 5946 5947 5949 5950 5951 5952 5953 5954 5955 5956 5957 5958 5958 5959 5960 5960 5961 5961 5961 5962 5962 5962 5963 5963 5963 5964 5964 5964 5964 5964 5965 5965
5905 5906 5907 5908 5910 5910 5911 5913 5915 5917 5919 5921 5923 5924 5925 5926 5927 5928 5930 5931 5932 5933 5935 5936 5937 5939 5940 5941 5942 5943 5944 5945 5946 5947 5948 5949 5951 5952 5953 5954 5956 5957 5957 5958 5959 5959 5960 5960 5960 5961 5961 5961 5962 5962 5962 5963 5963 5963 5964 5964 5964 5965 5965
5904 5905 5906 5906 5907 5908 5909 5911 5914 5916 5918 5920 5921 5922 5923 5924 5926 5927 5929 5930 5930 5931 5932 5934 5935 5937 5938 5939 5940 5941 5943 5944 5945 5946 5947 5948 5949 5950 5952 5953 5954 5956 5957 5957 5958 5959 5959 5960 5960 5960 5960 5961 5961 5962 5962 5962 5963 5963 5963 5964 5964 5965 5965
5902 5903 5903 5904 5905 5906 5907 5909 5912 5914 5916 5917 5919 5920 5921 5922 5924 5926 5928 5929 5929 5930 5931 5932 5934 5935 5937 5938 5939 5940 5941 5942 5943 5945 5946 5947 5948 5949 5950 5951 5953 5954 5955 5956 5957 5957 5958 5959 5959 5960 5960 5960 5961 5961 5962 5962 5963 5963 5963 5964 5964 5965 5965
5900 5901 5901 5902 5903 5904 5905 5908 5910 5912 5913 5915 5916 5918 5919 5921 5923 5924 5926 5927 5928 5928 5930 5931 5932 5933 5934 5936 5937 5938 5939 5941 5942 5943 5945 5946 5947 5948 5949 5950 5951 5952 5954 5955 5955 5956 5956 5957 5958 5959 5959 5959 5960 5960 5961 5962 5962 5962 5963 5963 5964 5964 5964
5897 5898 5899 5899 5900 5901 5903 5906 5908 5910 5912 5913 5914 5915 5917 5919 5920 5922 5923 5925 5926 5927 5928 5928 5929 5931 5932 5933 5934 5936 5937 5938 5940 5941 5943 5945 5946 5947 5948 5949 5949 5950 5951 5952 5953 5953 5954 5955 5956 5957 5958 5958 5959 5959 5960 5961 5961 5962 5962 5963 5963 5963 5964
5895 5896 5897 5898 5899 5900 5901 5904 5906 5908 5909 5910 5911 5912 5915 5917 5919 5920 5922 5923 5924 5925 5925 5926 5927 5928 5929 5930 5932 5933 5934 5935 5937 5939 5941 5943 5944 5945 5946 5947 5947 5948 5949 5949 5950 5951 5952 5953 5954 5955 5956 5957 5957 5958 5958 5959 5960 5961 5961 5962 5962 5962 5963
5894 5894 5895 5896 5897 5899 5900 5901 5903 5905 5906 5907 5908 5911 5913 5916 5918 5920 5921 5922 5923 5923 5924 5924 5925 5926 5927 5929 5930 5931 5932 5933 5935 5936 5938 5940 5942 5943 5943 5944 5945 5946 5946 5947 5948 5949 5950 5950 5951 5952 5953 5955 5955 5956 5957 5957 5958 5959 5960 5960 5961 5961 5961
5892 5893 5894 5895 5896 5897 5897 5898 5899 5901 5902 5904 5906 5910 5912 5914 5916 5917 5918 5918 5919 5921 5922 5924 5925 5926 5927 5928 5929 5930 5931 5932 5933 5934 5936 5938 5939 5940 5941 5941 5943 5944 5944 5945 5946 5947 5948 5949 5949 5950 5951 5952 5953 5954 5955 5956 5956 5957 5958 5959 5959 5959 5960
5890 5891 5892 5893 5894 5895 5895 5895 5897 5898 5900 5902 5905 5907 5909 5911 5912 5913 5914 5916 5917 5919 5922 5923 5925 5926 5926 5927 5928 5929 5930 5931 5932 5933 5934 5935 5936 5937 5938 5939 5940 5942 5943 5944 5945 5945 5946 5947 5948 5948 5949 5950 5951 5952 5953 5954 5955 5955 5956 5957 5957 5958 5958
5888 5889 5891 5891 5892 5893 5893 5894 5895 5897 5898 5900 5902 5904 5906 5907 5909 5910 5912 5914 5915 5917 5919 5920 5921 5922 5923 5924 5925 5926 5927 5928 5929 5931 5932 5933 5934 5935 5936 5937 5938 5939 5941 5942 5943 5944 5945 5946 5947 5947 5948 5948 5949 5951 5952 5952 5953 5953 5954 5955 5955 5956 5957
5887 5888 5889 5890 5890 5891 5892 5892 5893 5895 5896 5897 5899 5901 5902 5904 5905 5907 5909 5911 5913 5914 5916 5917 5917 5918 5919 5921 5922 5924 5924 5925 5926 5927 5929 5930 5932 5933 5933 5934 5935 5936 5938 5939 5940 5942 5944 5945 5946 5947 5947 5948 5948 5949 5950 5951 5952 5952 5952 5953 5953 5954 5955
5884 5886 5887 5888 5888 5889 5890 5891 5891 5892 5893 5895 5896 5898 5899 5900 5902 5904 5905 5907 5909 5911 5912 5913 5914 5915 5917 5918 5920 5921 5922 5923 5924 5924 5925 5926 5928 5930 5931 5931 5932 5933 5935 5936 5938 5940 5941 5943 5944 5945 5946 5947 5948 5948 5949 5950 5950 5950 5951 5951 5952 5952 5953
5882 5883 5884 5885 5886 5887 5888 5889 5890 5891 5892 5893 5894 5895 5896 5897 5899 5900 5902 5904 5906 5907 5908 5910 5911 5913 5914 5915 5916 5918 5919 5920 5921 5921 5922 5923 5924 5925 5927 5928 5929 5931 5932 5934 5936 5937 5939 5940 5941 5942 5943 5945 5946 5947 5948 5948 5949 5949 5950 5950 5951 5951 5951
5878 5880 5882 5883 5884 5884 5885 5887 5888 5889 5890 5891 5892 5893 5894 5895 5896 5898 5899 5901 5902 5904 5905 5907 5908 5910 5912 5913 5914 5915 5916 5916 5917 5917 5918 5919 5920 5921 5923 5924 5926 5928 5930 5931 5933 5935 5936 5937 5938 5939 5940 5941 5943 5945 5946 5947 5947 5948 5948 5949 5950 5950 5950
5875 5877 5879 5881 5881 5882 5883 5884 5885 5886 5888 5889 5890 5891 5892 5893 5894 5895 5897 5898 5900 5901 5902 5904 5906 5908 5909 5910 5910 5911 5912 5913 5914 5914 5914 5915 5916 5917 5919 5921 5924 5926 5927 5929 5930 5932 5933 5934 5936 5937 5938 5938 5939 5941 5943 5944 5945 5946 5946 5947 5948 5949 5949
5872 5874 5876 5878 5878 5879 5880 5881 5882 5883 5884 5886 5887 5888 5889 5891 5892 5893 5894 5896 5897 5898 5900 5902 5903 5905 5905 5906 5907 5908 5909 5910 5910 5910 5911 5911 5913 5915 5917 5918 5920 5922 5924 5925 5927 5928 5929 5930 5932 5933 5935 5936 5937 5938 5939 5940 5941 5942 5943 5944 5946 5947 5948
5868 5870 5872 5874 5875 5876 5877 5878 5878 5880 5881 5882 5884 5885 5887 5888 5890 5890 5892 5893 5894 5895 5897 5899 5900 5902 5903 5904 5905 5905 5906 5906 5907 5907 5907 5908 5909 5912 5913 5913 5914 5916 5918 5920 5922 5924 5925 5926 5928 5930 5932 5933 5934 5935 5936 5937 5938 5938 5939 5941 5942 5943 5945
5864 5866 5868 5869 5871 5872 5873 5874 5875 5876 5877 5879 5880 5881 5883 5885 5887 5887 5888 5890 5891 5892 5894 5896 5897 5898 5899 5900 5901 5902 5903 5903 5904 5904 5905 5905 5906 5907 5908 5908 5909 5911 5913 5915 5917 5919 5921 5922 5924 5926 5928 5929 5931 5932 5933 5934 5934 5935 5936 5937 5938 5940 5942
5860 5862 5863 5865 5867 5868 5870 5871 5871 5872 5874 5875 5876 5877 5879 5881 5883 5884 5885 5886 5888 5889 5891 5893 5894 5895 5896 5897 5898 5899 5900 5900 5901 5901 5901 5902 5902 5902 5903 5903 5904 5906 5908 5911 5913 5915 5916 5918 5920 5922 5924 5925 5927 5928 5929 5930 5931 5932 5933 5934 5935 5936 5939
5856 5857 5859 5861 5863 5864 5866 5867 5868 5869 5870 5871 5872 5874 5875 5877 5879 5880 5882 5883 5885 5887 5888 5889 5890 5892 5893 5894 5895 5896 5897 5898 5899 5899 5899 5899 5898 5897 5898 5899 5900 5901 5903 5906 5909 5910 5912 5913 5915 5917 5919 5921 5923 5924 5925 5926 5927 5929 5930 5931 5932 5933 5935
5851 5853 5855 5857 5859 5860 5862 5863 5865 5866 5867 5868 5869 5870 5872 5874 5875 5877 5878 5880 5882 5883 5885 5886 5887 5889 5890 5892 5893 5894 5894 5895 5896 5897 5897 5897 5896 5895 5895 5895 5896 5897 5899 5902 5904 5906 5908 5909 5911 5913 5914 5917 5918 5920 5921 5922 5923 5925 5926 5928 5929 5930 5932
5846 5849 5851 5853 5854 5856 5858 5859 5861 5862 5863 5864 5865 5867 5869 5870 5872 5873 5875 5876 5878 5880 5882 5883 5884 5885 5887 5888 5890 5891 5891 5892 5892 5894 5895 5896 5895 5894 5894 5893 5893 5893 5895 5898 5900 5902 5903 5905 5907 5908 5910 5912 5914 5916 5917 5918 5919 5921 5922 5924 5926 5927 5928
5840 5843 5845 5848 5850 5851 5853 5855 5856 5858 5859 5860 5862 5863 5865 5866 5868 5869 5871 5873 5874 5876 5877 5879 5880 5881 5882 5883 5885 5887 5888 5888 5888 5890 5891 5893 5893 5893 5893 5893 5891 5892 5893 5895 5896 5897 5899 5900 5902 5904 5906 5908 5910 5912 5913 5914 5915 5916 5918 5919 5921 5922 5924
5835 5837 5840 5842 5844 5846 5848 5850 5852 5854 5855 5857 5858 5860 5861 5863 5864 5866 5868 5869 5871 5872 5873 5875 5876 5877 5878 5880 5882 5883 5884 5884 5885 5887 5888 5889 5890 5891 5891 5892 5891 5891 5892 5893 5893 5893 5894 5896 5898 5900 5903 5905 5907 5908 5909 5910 5911 5913 5914 5915 5916 5917 5919
5830 5832 5835 5837 5839 5841 5843 5845 5847 5849 5851 5853 5855 5856 5858 5859 5861 5863 5864 5866 5867 5868 5869 5870 5872 5874 5875 5876 5878 5880 5880 5881 5882 5884 5885 5885 5886 5887 5888 5889 5889 5889 5890 5890 5891 5891 5892 5893 5895 5897 5899 5901 5903 5904 5906 5906 5907 5909 5910 5911 5912 5912 5913
5824 5827 5829 5832 5834 5836 5838 5840 5842 5844 5847 5849 5851 5852 5854 5856 5857 5859 5861 5862 5863 5865 5866 5867 5868 5870 5871 5872 5874 5876 5877 5878 5879 5881 5882 5882 5883 5883 5884 5884 5886 5887 5886 5887 5889 5890 5890 5891 5892 5894 5895 5897 5899 5900 5901 5902 5903 5904 5905 5907 5907 5908 5909
5817 5820 5823 5825 5828 5831 5833 5835 5837 5839 5841 5843 5845 5847 5849 5851 5853 5855 5856 5858 5860 5861 5862 5863 5865 5866 5867 5869 5870 5872 5873 5875 5876 5877 5878 5879 5880 5881 5881 5882 5883 5885 5884 5884 5886 5887 5888 5888 5890 5892 5893 5894 5895 5895 5896 5898 5899 5900 5901 5902 5903 5904 5905
5814 5815 5817 5820 5822 5825 5827 5830 5832 5834 5836 5838 5840 5842 5844 5846 5848 5850 5851 5853 5855 5857 5859 5860 5861 5862 5864 5865 5866 5868 5869 5871 5872 5873 5874 5875 5876 5877 5878 5879 5880 5881 5882 5882 5883 5884 5885 5886 5887 5888 5889 5890 5891 5891 5892 5893 5895 5895 5896 5897 5899 5899 5900
5809 5811 5812 5814 5816 5818 5821 5824 5826 5829 5831 5833 5835 5837 5839 5841 5843 5844 5846 5848 5850 5852 5854 5856 5857 5858 5860 5861 5862 5863 5865 5866 5868 5869 5870 5871 5872 5874 5875 5876 5876 5877 5878 5879 5880 5880 5881 5882 5882 5883 5885 5886 5887 5888 5889 5890 5891 5891 5892 5893 5894 5895 5895
5803 5805 5807 5809 5811 5814 5816 5818 5821 5823 5825 5827 5830 5832 5834 5835 5837 5839 5841 5843 5845 5847 5849 5851 5853 5854 5855 5857 5858 5859 5860 5862 5863 5865 5866 5868 5869 5870 5871 5872 5873 5874 5875 5875 5876 5877 5877 5878 5878 5879 5880 5881 5883 5884 5886 5887 5887 5888 5889 5889 5890 5891 5891
5799 5800 5802 5804 5806 5809 5811 5813 5815 5817 5818 5821 5823 5825 5827 5830 5831 5833 5835 5837 5839 5841 5843 5845 5847 5849 5851 5852 5854 5855 5856 5857 5859 5860 5862 5863 5865 5866 5867 5868 5869 5870 5870 5871 5872 5873 5874 5874 5874 5875 5875 5877 5878 5880 5881 5883 5884 5884 5885 5885 5886 5887 5888
5794 5795 5796 5799 5801 5804 5806 5808 5810 5811 5813 5815 5817 5819 5821 5823 5825 5827 5829 5831 5833 5835 5837 5839 5841 5843 5845 5847 5849 5850 5851 5852 5854 5855 5857 5858 5860 5861 5862 5863 5864 5865 5866 5867 5867 5868 5869 5870 5871 5871 5872 5872 5874 5875 5876 5878 5879 5880 5880 5880 5881 5882 5882
5788 5789 5791 5793 5796 5799 5802 5804 5805 5805 5806 5808 5810 5812 5814 5817 5819 5821 5823 5824 5826 5829 5831 5833 5835 5837 5839 5841 5843 5844 5846 5847 5848 5850 5851 5853 5855 5856 5857 5859 5860 5861 5862 5862 5863 5864 5865 5866 5867 5867 5868 5868 5869 5870 5871 5873 5874 5875 5875 5876 5876 5876 5877
5781 5782 5783 5785 5789 5792 5795 5798 5800 5799 5799 5800 5802 5805 5807 5810 5813 5815 5817 5818 5820 5822 5825 5827 5829 5831 5833 5835 5837 5838 5840 5841 5842 5844 5845 5847 5849 5850 5852 5853 5854 5856 5857 5858 5858 5859 5860 5861 5862 5863 5863 5864 5864 5865 5866 5868 5869 5870 5871 5871 5871 5872 5872
5776 5775 5776 5778 5781 5785 5787 5790 5792 5792 5792 5793 5795 5798 5801 5803 5806 5808 5810 5812 5814 5816 5818 5820 5823 5825 5826 5828 5830 5831 5833 5835 5836 5838 5839 5840 5842 5844 5845 5847 5848 5849 5850 5852 5853 5854 5854 5855 5856 5857 5858 5859 5859 5860 5861 5862 5863 5864 5865 5866 5866 5867 5867
5771 5771 5771 5772 5774 5777 5779 5781 5783 5784 5786 5787 5789 5791 5794 5796 5799 5802 5804 5806 5808 5810 5812 5814 5816 5818 5820 5822 5823 5825 5826 5828 5829 5831 5833 5834 5835 5837 5838 5840 5842 5843 5844 5845 5846 5848 5849 5849 5850 5851 5853 5853 5854 5855 5856 5857 5858 5858 5859 5860 5861 5861 5861
Wind_Speed
25 25 24 23 23 22 22 21 21 20 20 21 20 20 20 21 21 20 20 20 20 20 19 19 18 18 18 17 17 17 16 16 15 13 12 12 12 11 10 10 9 9 9 9 10 11 11 11 11 11 11 11 10 10 9 9 9 9 9 8 8 8 9
23 26 27 25 25 25 24 23 22 22 22 22 22 21 21 21 21 22 21 21 20 20 19 19 20 19 19 18 17 17 17 16 16 15 14 13 13 13 12 11 10 10 9 10 10 11 11 11 11 11 11 11 10 10 9 9 8 7 7 8 8 8 8
21 24 26 27 27 28 28 26 25 24 24 23 22 21 21 21 21 22 22 22 21 20 19 19 20 20 20 19 18 18 18 18 17 17 16 15 15 14 13 12 11 11 11 10 9 9 10 10 10 10 10 11 10 10 9 8 8 7 7 7 8 8 8
19 21 23 26 29 31 31 30 27 25 24 23 22 22 22 22 21 21 21 22 21 21 21 20 20 21 21 21 20 20 19 19 19 18 18 17 16 16 15 14 13 12 12 10 9 9 9 9 9 9 10 10 10 10 9 9 8 8 8 7 8 8 8
20 20 21 22 28 35 34 29 28 26 25 24 24 23 23 22 21 19 18 19 20 21 21 20 20 20 20 21 21 21 21 20 20 19 19 18 18 17 17 16 15 14 13 12 11 10 9 9 9 9 9 10 10 10 10 10 9 8 8 8 8 8 8
20 20 21 19 23 34 38 31 28 27 25 26 25 24 24 23 21 19 18 18 19 19 19 19 19 20 20 21 22 22 22 22 21 20 20 19 19 19 18 17 17 15 14 13 13 12 11 10 9 9 9 10 11 11 11 10 10 9 9 8 8 8 8
19 19 20 18 17 27 37 34 30 28 26 26 26 26 26 24 22 21 20 20 19 19 19 19 20 21 22 22 23 23 23 23 23 22 21 21 20 20 20 19 19 18 16 15 15 14 13 12 11 10 10 10 11 12 12 11 11 11 10 9 9 8 8
20 19 20 18 16 22 31 32 30 30 30 29 29 28 27 25 23 22 21 21 21 20 21 21 21 22 22 23 23 24 24 24 24 23 22 22 21 21 21 21 21 19 18 18 17 16 15 14 13 12 11 11 12 12 13 12 12 12 11 11 10 9 9
20 19 19 19 18 22 30 33 32 31 32 33 32 29 27 26 23 21 21 21 21 22 23 22 22 21 21 21 22 23 23 24 24 24 23 23 23 23 23 23 23 22 21 20 19 18 18 16 15 14 14 14 13 14 14 14 14 13 13 12 12 11 10
21 19 19 19 19 22 26 31 34 35 35 35 33 30 28 27 26 25 24 25 25 24 23 22 21 20 19 19 20 21 21 22 23 23 24 24 25 25 25 25 24 24 23 22 21 21 20 19 18 17 17 17 16 16 15 15 15 15 14 14 13 13 12
23 22 20 20 20 21 21 23 28 34 36 36 34 32 31 29 29 29 29 28 28 26 24 22 21 21 20 20 20 20 20 22 23 23 24 25 26 27 27 27 26 26 26 25 24 23 23 21 21 20 20 20 19 18 17 16 16 16 15 15 15 15 14
24 23 22 21 21 22 23 22 22 24 28 30 31 33 33 32 32 32 31 31 31 28 26 25 25 25 25 24 22 22 22 23 23 24 24 25 26 28 29 29 28 28 27 27 26 25 24 23 23 23 22 22 21 20 19 18 18 17 17 17 16 16 16
26 24 23 22 22 22 24 25 23 21 21 24 25 28 31 33 35 36 35 34 33 30 29 29 30 30 29 27 25 25 26 26 26 25 25 26 27 28 30 30 30 30 29 29 28 27 26 25 25 25 24 23 22 22 21 20 19 19 19 19 18 18 18
28 26 24 23 23 23 24 24 24 23 23 24 24 24 27 29 31 34 36 35 33 32 32 32 31 31 31 29 28 28 29 30 30 28 26 27 28 29 30 31 32 32 31 31 30 29 27 27 27 26 26 26 24 24 23 22 21 21 21 21 21 20 19
28 28 26 25 25 25 24 23 23 24 25 26 26 26 26 27 27 28 33 36 34 33 33 33 33 32 31 31 31 31 31 32 33 32 30 29 30 31 31 32 32 32 33 32 31 30 29 29 28 28 28 27 26 25 24 24 24 24 23 23 22 22 21
30 28 27 26 26 28 27 25 25 25 25 27 28 27 27 27 26 25 27 32 33 32 32 33 33 31 31 31 31 31 31 32 33 35 34 33 33 33 33 33 33 32 33 33 33 32 32 31 30 30 30 29 28 27 25 25 25 25 25 24 23 23 22
33 31 29 27 27 29 30 30 28 27 26 27 28 28 27 28 27 26 25 26 28 29 29 30 29 29 29 30 31 31 31 32 33 36 37 37 36 36 35 34 33 32 33 33 34 34 34 33 32 31 31 31 30 28 27 26 26 26 26 26 25 24 23
36 34 32 30 29 29 30 31 31 29 28 28 28 27 27 26 26 25 24 25 26 27 27 27 26 26 27 28 29 29 29 30 31 33 36 39 39 38 36 35 34 34 34 34 35 36 36 36 35 34 33 32 31 30 29 28 28 28 27 26 26 25 25
38 36 34 31 29 29 29 30 30 30 31 31 31 30 28 27 26 25 23 23 24 25 25 26 25 24 25 26 26 26 26 27 27 28 31 36 39 40 39 38 37 37 36 36 36 36 36 37 37 36 35 33 32 32 31 30 29 29 28 27 26 26 26
37 36 34 31 29 28 28 29 31 31 32 33 33 33 32 31 30 28 25 24 24 24 24 24 24 24 25 25 24 23 23 24 24 25 26 30 35 39 41 41 40 39 38 38 37 37 37 38 38 38 37 36 34 33 32 32 31 31 29 28 27 26 26
34 34 33 31 30 29 28 27 28 30 32 33 33 34 33 32 32 30 28 27 26 25 24 24 25 25 24 24 24 24 24 23 22 21 22 24 29 35 39 40 42 42 41 40 39 38 38 38 38 39 39 38 36 35 34 33 33 32 31 29 28 26 25
33 33 33 31 30 30 30 28 27 28 31 33 33 33 32 32 32 32 31 29 29 27 26 26 26 25 23 23 23 23 24 24 21 19 19 18 20 25 31 34 39 43 43 42 40 37 37 38 39 40 40 40 38 37 35 35 34 33 32 31 29 28 26
33 32 32 32 31 31 31 31 29 29 31 33 34 34 33 32 32 33 33 32 31 30 29 28 28 26 26 25 24 24 23 23 21 20 19 17 16 18 20 25 33 40 43 43 41 38 37 38 40 40 40 41 41 40 38 36 35 34 33 32 31 29 28
35 33 32 32 32 32 33 33 33 32 32 34 35 34 34 33 33 34 34 34 33 32 31 30 29 27 27 27 27 27 25 24 23 20 19 18 17 17 16 16 21 30 37 41 41 40 39 39 40 41 42 41 41 41 40 39 37 35 34 33 32 31 30
38 36 35 34 33 32 33 33 34 34 34 35 36 35 35 35 34 34 34 34 34 33 32 31 30 28 28 28 28 28 26 26 25 24 22 21 20 19 17 12 9 11 19 27 34 37 39 39 38 39 40 40 40 40 41 40 39 38 37 35 35 33 32
40 39 36 35 34 33 33 33 33 33 34 35 37 37 37 36 35 35 35 35 35 34 34 33 32 31 31 30 29 29 28 26 26 25 24 22 21 21 21 19 16 12 10 14 19 25 31 35 37 38 37 37 38 40 40 40 39 39 38 37 37 36 35
41 41 39 37 36 35 34 34 34 34 34 35 36 36 37 37 36 35 36 36 36 36 35 34 33 33 33 32 31 30 29 28 26 24 22 21 21 20 19 20 23 21 16 13 11 11 15 21 28 34 38 38 38 38 39 40 40 39 38 37 37 38 37
43 43 42 40 40 39 38 37 36 35 35 36 36 36 36 36 36 36 37 37 37 37 37 36 36 34 33 32 31 30 30 28 26 24 22 22 22 21 18 18 21 24 24 22 19 15 15 16 18 24 31 36 39 39 39 41 41 39 37 37 37 37 37
42 43 44 43 42 41 41 41 40 39 38 38 39 38 38 37 37 36 37 37 38 38 38 38 37 36 35 34 32 30 30 29 26 24 23 24 23 23 23 23 23 23 25 26 23 21 22 23 22 21 22 25 29 32 35 38 40 40 39 38 38 37 36
33 36 38 40 41 42 43 44 44 44 43 43 43 42 41 41 40 38 38 38 38 38 39 38 38 38 37 36 34 32 30 28 27 25 23 23 23 23 24 25 24 23 23 23 23 22 23 24 24 24 24 24 23 23 25 28 32 35 38 39 39 39 37
35 33 33 35 37 39 42 44 46 47 47 47 47 47 46 44 43 42 41 41 40 40 39 39 38 38 37 36 35 33 31 29 27 26 24 23 23 23 23 23 24 24 23 23 23 23 23 23 23 24 25 26 24 23 23 23 24 26 29 31 34 35 35
36 36 35 35 36 38 40 43 44 47 50 51 50 50 49 48 46 44 43 43 42 41 40 39 38 38 37 36 35 33 32 30 29 27 26 25 24 24 24 24 25 25 24 24 23 23 23 24 24 24 24 24 24 24 25 26 26 26 27 27 28 29 29
41 41 40 39 37 38 41 44 44 44 47 50 51 51 50 49 47 46 45 45 44 44 43 41 40 39 38 37 37 35 33 32 30 29 28 27 27 27 26 27 27 27 27 26 26 25 25 25 26 26 26 26 26 26 26 27 28 29 30 30 30 29 29
45 46 47 46 44 41 41 45 47 46 46 48 50 51 50 49 48 47 47 47 47 47 46 45 43 42 40 39 39 38 36 35 33 32 32 31 31 31 30 30 30 30 30 29 29 28 29 29 29 29 29 29 29 30 30 30 31 31 32 32 32 31 31
43 46 48 49 49 47 45 45 45 45 45 46 48 50 51 51 50 49 49 49 49 49 48 48 46 44 43 42 41 41 40 38 37 37 36 36 35 35 35 35 34 34 34 33 33 33 32 32 32 33 33 33 33 33 33 33 33 33 34 34 34 35 34
38 41 44 47 49 50 49 48 45 42 41 40 41 44 48 50 52 53 52 52 52 51 51 50 49 48 47 45 44 43 42 41 40 40 40 40 39 39 38 38 38 38 37 37 37 37 36 36 35 35 36 36 36 36 36 36 35 35 36 36 37 38 38
34 35 36 41 47 50 52 52 53 52 49 45 42 40 41 44 46 49 52 54 54 54 54 53 52 51 50 49 47 46 44 43 43 42 42 41 41 41 40 40 40 41 41 40 40 40 40 39 39 38 38 38 39 39 39 39 38 38 38 39 39 40 41
40 38 35 35 39 44 48 49 51 54 54 53 51 48 46 44 44 44 46 48 51 53 54 55 54 53 53 51 50 48 46 46 45 45 44 44 43 43 42 42 42 42 43 43 42 42 41 42 41 41 41 40 40 41 41 41 41 41 41 42 42 42 43
Wind_Direction
211 213 217 220 221 219 212 204 203 202 200 200 201 200 202 202 200 199 200 202 203 204 204 202 201 205 208 208 207 208 211 213 212 213 217 219 222 222 220 214 210 210 217 223 224 223 223 223 224 225 222 218 213 212 212 212 212 209 206 204 203 203 203
216 215 216 219 223 225 220 210 204 204 202 201 201 201 203 204 201 199 199 200 201 203 205 204 203 206 210 211 211 212 214 216 215 214 215 219 222 224 222 221 217 211 211 218 223 225 225 225 227 228 228 224 219 215 213 213 214 214 211 209 207 208 207
215 219 220 221 223 227 227 217 206 204 204 201 201 202 204 206 204 201 200 200 199 201 203 204 205 208 210 211 213 214 215 217 218 217 216 217 221 224 224 225 224 219 214 215 220 226 228 228 228 230 231 230 227 223 219 218 219 221 222 219 215 213 211
211 217 223 226 224 225 225 219 210 205 204 202 202 203 205 208 207 204 203 203 201 201 202 203 205 207 210 212 214 216 217 218 218 218 218 218 220 223 224 225 227 226 222 219 219 225 231 234 234 234 234 234 234 232 230 228 227 228 229 227 225 223 219
211 216 223 231 230 223 218 213 208 206 205 204 204 205 207 209 208 205 205 206 204 204 205 204 205 207 211 213 215 217 218 219 220 219 220 220 221 223 224 225 227 229 228 225 222 224 229 236 241 242 239 238 238 237 237 237 236 236 235 235 235 235 234
215 219 223 232 236 227 218 212 209 208 208 208 206 206 208 208 207 205 205 207 207 207 207 207 207 208 211 213 215 218 220 221 221 221 221 221 223 225 226 226 226 227 229 229 227 226 228 232 237 243 243 241 239 239 240 241 243 243 244 244 244 245 247
216 221 226 231 234 225 218 214 212 210 210 211 210 210 209 208 206 204 203 205 207 207 207 207 208 209 211 212 213 216 219 221 222 222 221 221 222 225 227 228 228 227 227 230 231 229 229 231 232 236 240 242 241 239 239 240 243 245 246 248 250 252 254
216 220 226 225 221 219 218 218 216 213 212 213 213 212 212 211 208 206 205 207 209 210 210 209 210 211 213 215 215 215 217 219 222 223 222 222 223 225 227 229 230 229 227 228 232 231 230 230 231 232 235 238 240 240 239 239 240 243 245 247 249 252 254
218 220 225 223 214 214 219 220 220 218 216 216 216 214 215 215 212 211 212 214 214 215 217 216 216 216 217 220 222 222 221 221 222 223 223 223 224 225 226 229 231 232 230 228 230 232 232 231 229 229 231 233 236 238 239 239 239 241 244 246 248 250 251
226 223 225 226 220 216 220 221 219 219 219 218 216 215 218 219 217 215 216 218 220 220 222 226 229 228 226 226 230 232 232 230 228 227 226 224 225 225 226 228 230 233 233 231 230 231 232 231 230 228 228 229 231 233 236 238 239 240 242 246 248 249 249
233 230 228 230 229 227 230 230 224 221 220 218 215 215 218 220 221 223 222 222 225 226 225 230 235 236 233 232 235 238 240 240 238 235 232 228 226 227 227 228 229 232 234 234 233 233 233 233 232 230 228 227 228 230 232 235 237 239 240 242 245 248 248
234 236 234 235 237 237 238 238 234 229 226 223 220 219 219 219 220 225 226 225 227 228 227 229 234 235 232 230 233 237 240 241 240 239 239 237 233 230 229 229 230 231 234 236 236 235 235 236 236 235 233 231 229 229 230 232 235 237 238 238 241 244 247
234 236 237 239 240 242 243 242 243 243 239 236 232 228 227 226 224 223 224 226 227 227 227 230 233 236 234 233 236 240 240 239 238 235 236 239 238 235 232 231 231 231 232 235 236 237 237 238 239 240 239 237 234 233 231 232 234 236 237 237 238 240 243
234 235 238 241 243 243 244 245 248 251 249 248 246 242 242 243 239 230 225 226 229 229 229 232 235 238 239 239 242 244 243 242 239 235 233 235 237 238 236 233 233 232 233 234 236 237 237 237 239 240 242 241 239 237 235 233 234 236 237 238 238 239 240
234 235 238 243 247 247 247 249 253 254 252 252 252 251 250 252 252 243 230 226 229 231 231 233 237 239 241 242 244 245 245 243 239 236 233 232 233 234 235 235 234 234 234 234 236 238 238 238 238 238 240 242 242 242 240 238 236 236 238 239 240 241 241
236 237 240 246 251 252 251 252 255 257 255 253 253 253 252 251 252 250 238 230 231 233 234 236 240 242 244 245 246 248 249 249 245 240 236 233 232 231 231 233 234 234 234 234 234 236 238 239 239 238 238 239 240 242 243 243 242 241 240 241 242 243 244
242 242 245 252 256 254 252 252 255 259 258 254 251 250 249 249 248 247 243 238 237 238 238 240 243 244 245 246 246 247 249 250 250 249 243 236 234 234 232 231 233 235 236 235 234 234 235 238 239 240 239 238 237 238 239 240 243 244 244 244 245 246 247
247 248 250 255 257 254 251 250 252 255 254 251 247 244 242 241 241 240 238 237 237 237 237 238 240 241 241 242 244 246 248 249 251 252 248 240 237 237 235 232 232 234 236 235 235 235 234 235 237 238 239 238 237 236 236 236 238 240 242 244 245 247 248
251 252 254 255 254 250 248 248 249 250 249 246 243 241 240 238 235 233 229 229 232 235 235 235 237 238 239 240 242 245 250 252 253 254 251 244 239 238 237 234 232 232 233 233 234 235 234 234 235 236 238 239 238 237 236 236 237 238 238 240 242 244 247
255 255 255 253 249 245 244 245 245 244 244 244 243 243 244 243 239 234 229 228 231 235 236 237 239 241 241 241 243 246 251 254 254 254 254 251 245 240 239 239 237 235 233 232 232 233 234 235 235 235 236 237 238 237 237 237 238 238 238 238 239 241 244
255 255 254 250 244 240 240 242 243 241 240 242 243 244 245 245 241 236 233 232 234 236 238 239 241 243 245 246 247 248 250 252 252 254 257 260 255 245 240 242 242 239 236 234 233 232 233 234 235 235 235 236 237 237 237 238 239 240 241 241 241 241 242
251 253 254 251 245 240 238 239 242 241 239 239 240 240 242 242 239 236 233 233 234 236 237 238 240 242 243 246 246 245 245 246 250 257 261 268 268 255 243 240 241 241 239 237 235 233 233 233 234 235 235 236 236 237 238 239 240 241 242 243 243 244 244
250 250 252 251 247 243 240 239 240 242 241 239 237 236 236 237 237 235 234 234 234 235 236 237 239 240 241 242 242 242 243 245 249 256 262 272 286 281 259 243 240 241 240 238 238 237 237 236 236 235 234 234 236 237 237 239 240 241 242 244 244 245 247
251 249 249 251 249 246 243 240 240 243 243 240 236 234 233 233 234 235 236 237 237 238 238 238 238 240 242 243 242 243 247 251 251 250 252 263 278 285 277 257 243 241 240 241 243 243 242 240 239 237 234 233 234 236 238 239 240 241 242 243 244 245 246
250 250 249 249 250 248 244 241 241 242 242 239 235 233 231 231 233 235 237 238 239 239 240 239 239 239 241 243 244 245 247 251 253 254 255 259 263 266 268 265 256 250 245 245 247 246 242 241 240 239 236 234 234 236 239 240 242 243 243 243 243 244 245
245 247 247 246 246 247 245 242 241 241 241 239 237 235 232 231 232 234 236 237 238 240 241 241 239 239 241 243 245 247 248 249 251 255 261 264 262 259 259 260 265 272 264 250 248 245 242 241 241 239 237 236 236 237 239 241 241 243 245 245 244 243 244
242 243 243 243 243 245 244 243 243 242 241 240 239 237 235 233 232 233 235 237 238 240 241 243 242 242 243 244 246 249 251 252 252 253 256 260 259 257 258 263 264 259 253 248 247 245 243 244 243 240 238 238 238 239 241 242 243 243 244 245 245 244 244
239 238 239 241 241 242 242 241 241 241 241 240 239 238 237 236 235 234 236 238 240 240 241 243 244 244 245 245 246 247 249 252 253 251 249 251 254 254 256 264 266 260 258 263 266 264 262 263 258 249 242 239 240 242 243 244 243 243 243 243 244 245 246
234 234 236 239 241 241 241 241 240 240 239 238 236 235 235 236 236 236 237 239 241 242 242 243 244 245 246 246 246 246 247 249 251 250 247 247 250 251 252 257 262 263 264 269 270 267 265 266 265 258 249 242 242 245 245 244 244 245 246 246 245 244 245
237 236 236 238 240 241 240 240 240 240 239 238 237 237 236 236 237 238 239 240 241 242 243 244 244 245 246 246 247 246 245 246 247 247 247 246 247 249 251 253 256 257 259 261 262 261 261 262 260 256 254 253 253 253 252 250 248 247 247 247 247 245 245
242 242 242 240 240 239 240 239 239 239 239 239 240 240 241 242 243 242 242 242 242 242 243 243 245 246 247 247 247 246 245 244 243 242 243 244 245 246 247 250 252 253 253 253 255 256 257 259 260 259 257 257 257 256 256 256 255 253 251 249 247 246 245
242 244 245 246 245 242 240 239 239 238 238 239 240 241 243 244 245 244 243 242 241 242 242 242 244 245 247 247 247 245 244 243 243 242 241 242 244 246 248 249 251 252 252 252 253 254 255 257 259 259 259 258 256 253 250 250 252 253 254 252 251 250 250
247 248 248 249 249 246 241 237 235 235 235 236 238 239 240 241 241 241 241 241 241 242 243 243 243 243 243 244 244 243 242 242 243 245 245 246 247 248 250 252 253 254 255 255 254 254 254 255 255 256 256 256 255 253 250 249 249 249 250 251 251 251 253
247 248 249 248 248 247 243 234 229 229 231 232 234 235 236 236 236 236 237 238 240 242 243 243 243 242 240 240 240 240 240 241 243 245 248 250 251 252 252 253 254 255 256 256 256 255 254 254 254 254 254 253 253 252 251 250 250 250 250 251 252 252 253
250 247 247 247 246 246 244 236 227 223 223 225 227 229 232 233 233 234 235 237 238 240 241 242 242 241 240 239 238 238 239 241 244 247 250 252 253 254 255 255 255 255 255 256 257 256 256 255 255 255 255 254 253 252 251 250 250 250 251 251 253 254 255
252 248 247 247 247 247 246 243 237 231 228 226 226 227 229 231 232 234 235 237 238 239 240 240 240 240 240 240 240 239 240 243 246 249 252 254 254 255 256 256 257 257 256 255 256 256 256 256 256 256 256 257 256 255 254 252 251 251 251 251 252 253 253
242 244 244 244 245 247 248 247 246 245 244 243 240 237 236 235 235 235 235 236 237 238 239 239 239 239 239 240 240 240 242 245 248 250 252 254 255 256 256 256 257 257 257 256 256 256 256 256 256 256 256 257 257 258 257 257 255 254 252 252 252 253 253
238 239 239 240 241 243 246 247 247 247 249 249 248 247 246 245 244 243 241 239 238 237 237 237 237 238 238 238 239 241 244 247 249 250 252 254 255 256 257 257 256 256 256 256 256 255 254 255 255 255 255 256 256 257 258 258 258 257 256 255 254 254 254